Regional Weather Roundup
Issued by NWS Portland, ME

Current Version | Previous Version | Text Only | Print | Product List | Glossary On
Versions: 1 2 3 4 5 6 7 8 9 10 11 12 13 14 15 16 17 18 19 20 21 22 23 24 25 26 27 28 29 30 31 32 33 34 35 36 37 38 39 40 41 42 43 44 45 46 47 48 49 50
000
ASUS41 KGYX 261110
RWRGYX
WEATHER ROUNDUP FOR MAINE AND NEW HAMPSHIRE
NATIONAL WEATHER SERVICE GRAY ME
700 AM EDT SUN MAY 26 2019

MEZ002-005-006-010-012-015-018-020-021-024-026-027-029-261200-
MAINE

CITY           SKY/WX    TMP DP  RH WIND       PRES   REMARKS
PORTLAND       CLOUDY    52  49  89 S7        29.85F
SANFORD        FAIR      53  51  93 SW8       29.87R
BAR HARBOR     LGT RAIN  48  47  96 S14G21    29.88F
WISCASSET      CLOUDY    52  49  89 SW7       29.87F
ROCKLAND       LGT RAIN  50  49  96 SW8       29.86F FOG
FRYEBURG       FAIR      57  53  86 VRB3      29.82S
LEWISTONAUBURN CLOUDY    52  51  97 S5        29.84S
AUGUSTA        CLOUDY    50  49  96 VRB6      29.84S
WATERVILLE     CLOUDY    49  48  97 S6        29.82R
BANGOR         LGT RAIN  50  48  93 S7        29.84F
GREENVILLE       N/A     48  47  96 S5        29.78S
MILLINOCKET    LGT RAIN  50  48  93 VRB5      29.83F
HOULTON        LGT RAIN  49  46  90 S8        29.82F FOG
PRESQUE ISLE   CLOUDY    50  49  96 S12G18    29.80F
FRENCHVILLE    CLOUDY    51  47  86 S13       29.75F
CARIBOU        LGT RAIN  50  48  93 S13       29.78F
$$

NHZ002-005-008-009-011-012-014-261200-
NEW HAMPSHIRE

CITY           SKY/WX    TMP DP  RH WIND       PRES   REMARKS
PORTSMOUTH     CLOUDY    55  51  86 SW9       29.85F
ROCHESTER      PTSUNNY   54  50  86 CALM      29.86S
NASHUA         PTSUNNY   56  56 100 CALM      29.88S
MANCHESTER     PTSUNNY   55  52  89 S5        29.86S
CONCORD        FAIR      54  51  90 S5        29.87S
LACONIA        CLOUDY    55  52  89 SW5       29.87R
PLYMOUTH       PTSUNNY   55  54  95 CALM      29.84F
BERLIN         CLOUDY    57  54  89 CALM      29.82F
WHITEFIELD     CLOUDY    56  54  93 CALM      29.83F
JAFFREY        PTSUNNY   55  52  89 SW6       29.91R
KEENE          FAIR      55  53  93 S7        29.89F
LEBANON        FAIR      57  52  83 CALM      29.86R
MT WASHINGTON  FOG       45  45 100 NW52G70     N/A  VSB 0
$$

VTZ005-007-008-261200-
VERMONT

CITY           SKY/WX    TMP DP  RH WIND       PRES   REMARKS
ST JOHNSBURY     N/A     56  55  97 MISG      29.83R
MONTPELIER     PTSUNNY   57  55  93 S3        29.88S
BURLINGTON     PTSUNNY   62  57  83 SW8       29.83S
$$

MAZ007-012-024-CTZ003-RIZ002-NYZ038-NYZ072-261200-
SOUTHERN NEW ENGLAND AND NY

CITY           SKY/WX    TMP DP  RH WIND       PRES   REMARKS
BOSTON         PTSUNNY   61  56  83 SW15      29.89F
WORCESTER      FAIR      55  53  93 SW12      29.90F
NANTUCKET      LGT RAIN  55  54  96 S12       29.96F FOG
PROVIDENCE     CLOUDY    61  57  87 SW9       29.93S
HARTFORD       FAIR      63  54  72 S8        29.90F
ALBANY         PTSUNNY   59  55  87 S3        29.90S
NEW YORK CITY  PTSUNNY   66  59  78 W9        29.94S
$$

ANZ081-ANZ082-ANZ150-NHZ014-MEZ023>029-261200-
COASTAL MARINE OBSERVATIONS

STATION/POSITION TIME  TEMP    WIND        PRES    WAVE
                       AIR SEA DIR/SP/G            HT/PER
                 (UTC) (F)     (DEG/KT/KT) (MB)    (FT/S)
ISLE OF SHOALS   1000   53     210/ 17/ 18 1011.2F
JEFFREYS LEDGE   1008      49                N/A     6/ 9
CASHES LEDGE BUO 0950   48 48              1011.7    5/10
GEORGES BANK BUO 1050   47 45  200/  6/  8 1019.2R   5/ 9
$$

.............KEY..............
   WCI - WIND CHILL
   TC  - TEMPERATURE IN CELSIUS
   VSB - VISIBILITY IN MILES
   HX  - HEAT INDEX
   FAIR- INDICATES FEW OR NO CLOUDS BELOW 12,000 FT, WITH NO
         SIGNIFICANT WEATHER AND/OR OBSTRUCTIONS TO VISIBILITY.





USA.gov is the U.S. government's official web portal to all federal, state and local government web resources and services.